Weather History for Gwinn, MI

Change the Weather History Date:

Sunday, August 12, 2012

  Actual Average (KESC) Record (KESC)
Temperature  
Mean Temperature 60 °F -  
Max Temperature 75 °F 74 °F 85 °F (1959)
Min Temperature 44 °F 56 °F 44 °F (1997)
Degree Days  
Heating Degree Days 6    
Growing Degree Days 10 (Base 50)    
Moisture  
Dew Point 46 °F    
Average Humidity 67    
Maximum Humidity 87    
Minimum Humidity 31    
Precipitation  
Precipitation 0.00 in - - ()
Sea Level Pressure  
Sea Level Pressure 29.98 in    
Wind  
Wind Speed 3 mph (North)    
Max Wind Speed 12 mph    
Max Gust Speed -    
Visibility 10 miles    
Events      
Averages and records for this station are not official NWS values.
T = Trace of Precipitation, MM = Missing Value Source: NWS Daily Summary

Daily Weather History Graph

Daily Weather History Graph

Search for Another Location

Airport:

Trip Planner

Search our weather history database for the weather conditions in past years. The results will help you decide how hot, cold, wet, or windy it might be!

Date:

Astronomy

Aug. 12, 2012 Rise Set
Actual Time 6:45 AM EDT 9:02 PM EDT
Civil Twilight 6:11 AM EDT 9:36 PM EDT
Nautical Twilight 5:30 AM EDT 10:17 PM EDT
Astronomical Twilight 4:43 AM EDT 11:03 PM EDT
Moon 1:50 AM EDT (8/12) 5:34 PM EDT (8/12)
Length of Visible Light 15h 24m
Length of Day
14h 17m
Waning Crescent, 24% of the Moon is Illuminated
Aug 12
Waning Crescent
Aug 17
New
Aug 24
First Quarter
Aug 31
Full
Sep 8
Last Quarter

Hourly Weather History & Observations

Time (EDT) Temp. Windchill Dew Point Humidity Pressure Visibility Wind Dir Wind Speed Gust Speed Precip Events Conditions
12:16 AM 55.4 °F - 45.9 °F 70% 30.01 in 10.0 mi North 5.8 mph - N/A   Clear
12:36 AM 53.6 °F - 46.4 °F 77% 30.00 in 10.0 mi North 3.5 mph - N/A   Clear
12:56 AM 53.6 °F - 45.3 °F 74% 30.00 in 10.0 mi North 3.5 mph - N/A   Clear
1:17 AM 51.1 °F - 44.6 °F 78% 30.00 in 10.0 mi Calm Calm - N/A   Clear
1:36 AM 50.9 °F - 44.6 °F 79% 30.00 in 10.0 mi Calm Calm - N/A   Clear
1:56 AM 50.5 °F - 44.6 °F 80% 29.99 in 10.0 mi Calm Calm - N/A   Clear
2:17 AM 50.7 °F - 44.1 °F 78% 29.99 in 10.0 mi NNW 3.5 mph - N/A   Clear
2:36 AM 49.3 °F - 43.2 °F 79% 29.99 in 10.0 mi NNW 3.5 mph - N/A   Clear
2:57 AM 49.6 °F - 43.2 °F 78% 29.98 in 10.0 mi North 3.5 mph - N/A   Clear
3:17 AM 49.8 °F - 43.7 °F 79% 29.99 in 10.0 mi Calm Calm - N/A   Clear
3:36 AM 50.4 °F - 44.1 °F 79% 29.99 in 10.0 mi Calm Calm - N/A   Clear
3:57 AM 46.9 °F - 41.9 °F 83% 29.98 in 10.0 mi Calm Calm - N/A   Clear
4:17 AM 46.0 °F 44.8 °F 41.9 °F 85% 29.98 in 10.0 mi WNW 3.5 mph - N/A   Clear
4:36 AM 46.4 °F 45.2 °F 42.1 °F 85% 29.99 in 10.0 mi NW 3.5 mph - N/A   Clear
4:57 AM 47.3 °F - 43.0 °F 85% 29.99 in 10.0 mi Calm Calm - N/A   Clear
5:16 AM 46.0 °F - 42.1 °F 86% 29.99 in 10.0 mi Calm Calm - N/A   Clear
5:36 AM 45.7 °F - 41.5 °F 85% 29.99 in 10.0 mi Calm Calm - N/A   Clear
5:57 AM 45.7 °F - 42.1 °F 87% 29.99 in 10.0 mi Calm Calm - N/A   Clear
6:50 AM 44.6 °F - 41.0 °F 87% 29.99 in 10.0 mi Calm Calm - N/A   Clear
7:55 AM 46.4 °F - 42.8 °F 87% 29.99 in 10.0 mi Calm Calm - N/A   Clear
8:50 AM 53.6 °F - 46.4 °F 77% 30.01 in 10.0 mi Calm Calm - N/A   Clear
9:50 AM 64.4 °F - 48.2 °F 56% 30.01 in 10.0 mi SW 4.6 mph - N/A   Clear
10:50 AM 68.0 °F - 46.4 °F 46% 30.00 in 10.0 mi Calm Calm - N/A   Clear
11:50 AM 71.6 °F - 42.8 °F 35% 29.99 in 10.0 mi Calm Calm - N/A   Clear
12:50 PM 75.2 °F - 42.8 °F 31% 29.98 in 10.0 mi ESE 3.5 mph - N/A   Clear
1:50 PM 75.2 °F - 42.8 °F 31% 29.97 in 10.0 mi ENE 3.5 mph - N/A   Clear
2:50 PM 75.2 °F - 42.8 °F 31% 29.96 in 10.0 mi Calm Calm - N/A   Scattered Clouds
3:50 PM 75.2 °F - 48.2 °F 38% 29.96 in 10.0 mi North 10.4 mph - N/A   Scattered Clouds
4:50 PM 75.2 °F - 48.2 °F 38% 29.95 in 10.0 mi NNE 9.2 mph - N/A   Clear
5:50 PM 75.2 °F - 48.2 °F 38% 29.94 in 10.0 mi NE 9.2 mph - N/A   Scattered Clouds
6:50 PM 71.6 °F - 50.0 °F 46% 29.94 in 10.0 mi NNE 11.5 mph - N/A   Scattered Clouds
7:50 PM 68.0 °F - 50.0 °F 52% 29.94 in 10.0 mi ENE 5.8 mph - N/A   Scattered Clouds
8:50 PM 66.2 °F - 51.8 °F 60% 29.94 in 10.0 mi East 4.6 mph - N/A   Clear
9:50 PM 64.4 °F - 53.6 °F 68% 29.95 in 10.0 mi SSE 4.6 mph - N/A   Clear
10:17 PM 62.6 °F - 51.8 °F 68% 29.96 in 10.0 mi WSW 3.5 mph - N/A   Clear
10:36 PM 62.8 °F - 52.3 °F 69% 29.95 in 10.0 mi SW 3.5 mph - N/A   Clear
10:56 PM 62.1 °F - 51.1 °F 67% 29.95 in 10.0 mi WSW 3.5 mph - N/A   Clear
11:17 PM 60.8 °F - 50.2 °F 68% 29.95 in 10.0 mi Calm Calm - N/A   Clear
11:36 PM 60.8 °F - 50.0 °F 68% 29.95 in 10.0 mi Calm Calm - N/A   Clear
11:57 PM 61.0 °F - 50.0 °F 67% - 10.0 mi Calm Calm - N/A   Clear